User: anonymous   Login
Location: Unspecified
(0.0000°N, 0.0000°E)
Time: 15:50:30
(UTC+02:00)
Language:

PAS 1R - Orbit

View from above orbital plane
View from above orbital plane
View from above satellite
View from above satellite

Ground track
Ground track

The orbit data is extracted from the following two-line orbital elements,

1 26608U 00072A   17293.79502002 -.00000144 +00000-0 +00000-0 0  9998
2 26608 000.5665 094.4744 0000536 219.0604 162.1481 01.00178114009627
Epoch (UTC): 20 October 2017 19:04:49
Eccentricity: 0.0000536
inclination: 0.5665°
perigee height: 35810 km
apogee height: 35815 km
right ascension of ascending node: 94.4744°
argument of perigee: 219.0604°
revolutions per day: 1.00178114
mean anomaly at epoch: 162.1481°
orbit number at epoch: 962

The dashed part of the orbit path shows where the satellite is in the earth's shadow,  

DLR